Terminal Aerodrome Forecast
Issued by NWS

Home | Current Version | Previous Version | Text Only | Print | Product List | Glossary On
Versions: 1 2 3 4 5 6 7 8 9 10 11 12 13 14 15 16 17 18 19 20 21 22 23 24 25
000
FTUS42 KCAE 200200 AAA
TAFDNL
TAF AMD
KDNL 200244Z 2003/2024 VRB03KT P6SM OVC200
     FM200700 00000KT P6SM -RA OVC060
     FM201100 03003KT 4SM -RA BR SCT007 BKN025
     FM201500 VRB03KT 6SM -RA SCT007 OVC025=

USA.gov is the U.S. government's official web portal to all federal, state and local government web resources and services.